Location: Finkenwalde
(53.3770°N, 14.6418°E)
Time: 03:40:04
(UTC+00:00)

Cosmos 2219 Rocket - Pass Details

Date: 05 February 2023
Orbit: 826 x 848 km, 71.0° (Epoch: 24 March)

Event Time Altitude Azimuth Distance (km) Brightness Sun altitude
Rises 19:16:34 0° 228° (SW) 3,359 5.7 -30.5°
Reaches altitude 10° 19:19:04 10° 233° (SW) 2,431 5.0 -30.9°
Maximum altitude 19:24:30 52° 310° (NW) 1,026 2.8 -31.7°
Enters shadow 19:24:55 51° 326° (NW) 1,040 2.8 -31.7°
